Location: ?sanag?dem
(16.9522°N, 81.1036°E)
Time: 16:15:37
(UTC+00:00)

BlueWalker 3 - Pass Details

Date: 23 August 2024
Orbit: 475 x 486 km, 53.2° (Epoch: 20 September)

Event Time Altitude Azimuth Distance (km) Brightness Sun altitude
Rises 23:25:47 0° 325° (NW) 2,551 5.3 -13.6°
Reaches altitude 10° 23:27:58 10° 327° (NNW) 1,669 4.4 -13.1°
Maximum altitude 23:31:44 78° 54° (NE) 499 2.0 -12.2°
Drops below altitude 10° 23:35:29 10° 141° (SE) 1,663 4.9 -11.4°
Sets 23:37:39 0° 142° (SE) 2,540 5.8 -10.9°
